Starlink 34667

operational
NORAD ID: 64815 Int'l Des: 2025-150 Owner: SPXS Country: US Constellation: starlink
LEOCIRCULAR

Über Starlink 34667

Beschreibung wird geladen...

Live-Position

3D-Globus wird geladen...

Nächste Überflüge

Höhenverlauf

Altitude vs Time

uPlot chart will show altitude changes over time

Zweizeiliger Elementsatz

1 64815U 25150AB 26061.59399116 .00010180 00000-0 85982-3 0 9990
2 64815 70.0032 152.3528 0003371 274.4680 85.6094 14.98323456 35453
Epoch: 2. März 2026 • Age: 23 hours

Aktueller Status

Höhe 594.4 km
Geschwindigkeit 7.56 km/s
Subsatellitenpunkt -66.54°S, 124.04°W
Startdatum 16. Juli 2025
Alter 0.6 years
Typ internet

Technische Details

Klassifizierung Payload
Masse 575.00 kg
Trockenmasse 530.00 kg
Gesamtmasse 575.00 kg
Länge 0.30 m
Durchmesser 4.10 m
Spannweite 29.00 m
Form Box + pan
Hersteller SPXS
Bus-Typ Starlink V2MO
Phasenstatus In Orbit
Besitzer/Staat SPXS/US

Große Konstellationen

Loading constellations...